When you browse on this site, cookies collect data to enhance your experience and personalize the content and advertising you see.
Visit our Privacy Policy to learn more. By continuing to use the site, you agree to this use of cookies and data.
  • In Spain
  • List of Countries
  • For 7 days
  • Water Temperature
  • Weather Map
  • Weather Widgets
  • user-avatar
    Login

    Hourly Weather Kalemie

    Today, 17 February, Monday

    Time Temperature Precipitation Wind Pressure Humidity
    00:00 +28°C° 0 mm 1 mps 704 mmHg 44%
    01:00 +27°C° 0 mm 1 mps 704 mmHg 46%
    02:00 +26°C° 0 mm 1 mps 703 mmHg 49%
    03:00 +26°C° 0 mm 1 mps 703 mmHg 50%
    04:00 +25°C° 0 mm 1 mps 703 mmHg 52%
    05:00 +25°C° 0 mm 1 mps 703 mmHg 53%
    06:00 +27°C° 0 mm 1 mps 704 mmHg 48%
    07:00 +29°C° 0 mm 1 mps 705 mmHg 44%
    08:00 +31°C° 0 mm 1 mps 706 mmHg 38%
    09:00 +35°C° 0 mm 2 mps 706 mmHg 32%
    10:00 +38°C° 0 mm 3 mps 706 mmHg 26%
    11:00 +42°C° 0 mm 4 mps 706 mmHg 20%
    12:00 +42°C° 0 mm 4 mps 705 mmHg 20%
    13:00 +42°C° 0 mm 3 mps 704 mmHg 20%
    14:00 +40°C° 0 mm 3 mps 704 mmHg 19%
    15:00 +40°C° 0 mm 3 mps 703 mmHg 19%
    16:00 +39°C° 0 mm 3 mps 703 mmHg 19%
    17:00 +39°C° 0 mm 3 mps 703 mmHg 19%
    18:00 +37°C° 0 mm 2 mps 703 mmHg 22%
    19:00 +35°C° 0 mm 2 mps 703 mmHg 25%
    20:00 +31°C° 0 mm 1 mps 703 mmHg 28%
    21:00 +30°C° 0 mm 1 mps 703 mmHg 30%
    22:00 +29°C° 0 mm 1 mps 703 mmHg 33%
    23:00 +28°C° 0 mm 1 mps 704 mmHg 35%

    Tomorrow, 18 February, Tuesday

    Time Temperature Precipitation Wind Pressure Humidity
    00:00 +28°C° 0 mm 1 mps 703 mmHg 37%
    01:00 +27°C° 0 mm 1 mps 703 mmHg 40%
    02:00 +24°C° 0 mm 0 mps 703 mmHg 43%
    03:00 +24°C° 0.2 mm 0 mps 703 mmHg 43%
    04:00 +26°C° 0.2 mm 1 mps 704 mmHg 44%
    05:00 +26°C° 0.2 mm 1 mps 704 mmHg 45%
    06:00 +27°C° 0.6 mm 1 mps 705 mmHg 44%
    07:00 +28°C° 0.6 mm 1 mps 706 mmHg 44%
    08:00 +29°C° 0.6 mm 1 mps 707 mmHg 43%
    09:00 +32°C° 0 mm 1 mps 707 mmHg 35%
    10:00 +36°C° 0 mm 2 mps 707 mmHg 27%
    11:00 +39°C° 0 mm 3 mps 707 mmHg 19%
    12:00 +41°C° 0 mm 2 mps 706 mmHg 17%
    13:00 +42°C° 0 mm 2 mps 706 mmHg 15%
    14:00 +43°C° 0 mm 2 mps 705 mmHg 13%
    15:00 +43°C° 0 mm 2 mps 704 mmHg 14%
    16:00 +42°C° 0 mm 2 mps 703 mmHg 14%
    17:00 +41°C° 0 mm 2 mps 703 mmHg 14%
    18:00 +38°C° 0 mm 2 mps 703 mmHg 17%
    19:00 +35°C° 0 mm 2 mps 703 mmHg 20%
    20:00 +31°C° 0 mm 1 mps 703 mmHg 24%
    21:00 +31°C° 0 mm 1 mps 703 mmHg 27%
    22:00 +31°C° 0 mm 1 mps 704 mmHg 31%
    23:00 +30°C° 0 mm 1 mps 704 mmHg 34%

    Day after tomorrow, 19 February, Wednesday

    Time Temperature Precipitation Wind Pressure Humidity
    00:00 +30°C° 0 mm 1 mps 704 mmHg 36%
    01:00 +29°C° 0 mm 1 mps 704 mmHg 38%
    02:00 +29°C° 0 mm 1 mps 704 mmHg 40%
    03:00 +28°C° 0 mm 1 mps 704 mmHg 41%
    04:00 +28°C° 0 mm 1 mps 704 mmHg 42%
    05:00 +28°C° 0 mm 1 mps 704 mmHg 43%
    06:00 +29°C° 0 mm 1 mps 705 mmHg 44%
    07:00 +28°C° 0 mm 0 mps 706 mmHg 45%
    08:00 +28°C° 0 mm 0 mps 706 mmHg 46%
    09:00 +33°C° 0 mm 1 mps 707 mmHg 39%
    10:00 +37°C° 0 mm 2 mps 707 mmHg 33%
    11:00 +40°C° 0 mm 2 mps 707 mmHg 26%
    12:00 +40°C° 0 mm 2 mps 706 mmHg 23%
    13:00 +41°C° 0 mm 2 mps 705 mmHg 20%
    14:00 +41°C° 0 mm 2 mps 704 mmHg 18%
    15:00 +41°C° 0 mm 2 mps 704 mmHg 16%
    16:00 +42°C° 0 mm 3 mps 703 mmHg 14%
    17:00 +42°C° 0 mm 3 mps 703 mmHg 13%
    18:00 +37°C° 0 mm 2 mps 703 mmHg 20%
    19:00 +34°C° 0 mm 2 mps 703 mmHg 28%
    20:00 +30°C° 0 mm 1 mps 703 mmHg 36%
    21:00 +29°C° 0 mm 1 mps 703 mmHg 41%
    22:00 +29°C° 0 mm 1 mps 703 mmHg 45%
    23:00 +28°C° 0 mm 1 mps 704 mmHg 50%

    20 February, Thursday

    Time Temperature Precipitation Wind Pressure Humidity
    00:00 +28°C° 0 mm 1 mps 703 mmHg 52%
    01:00 +27°C° 0 mm 1 mps 703 mmHg 54%
    02:00 +27°C° 0 mm 1 mps 703 mmHg 56%
    03:00 +27°C° 0 mm 1 mps 703 mmHg 56%
    04:00 +27°C° 0 mm 1 mps 703 mmHg 56%
    05:00 +26°C° 0 mm 1 mps 704 mmHg 57%
    06:00 +27°C° 0 mm 1 mps 704 mmHg 50%
    07:00 +29°C° 0 mm 1 mps 705 mmHg 44%
    08:00 +30°C° 0 mm 1 mps 706 mmHg 37%
    09:00 +32°C° 0 mm 2 mps 706 mmHg 28%
    10:00 +36°C° 0 mm 2 mps 706 mmHg 20%
    11:00 +39°C° 0 mm 3 mps 706 mmHg 11%
    12:00 +40°C° 0 mm 3 mps 706 mmHg 11%
    13:00 +42°C° 0 mm 3 mps 705 mmHg 12%
    14:00 +43°C° 0 mm 3 mps 704 mmHg 12%
    15:00 +43°C° 0 mm 3 mps 703 mmHg 12%
    16:00 +42°C° 0 mm 3 mps 703 mmHg 13%
    17:00 +42°C° 0 mm 3 mps 702 mmHg 13%
    18:00 +38°C° 0 mm 2 mps 702 mmHg 15%
    19:00 +36°C° 0 mm 2 mps 702 mmHg 16%
    20:00 +32°C° 0 mm 1 mps 703 mmHg 18%
    21:00 +31°C° 0 mm 1 mps 703 mmHg 18%
    22:00 +30°C° 0 mm 1 mps 703 mmHg 19%
    23:00 +29°C° 0 mm 1 mps 703 mmHg 19%

    21 February, Friday

    Time Temperature Precipitation Wind Pressure Humidity
    00:00 +27°C° 0 mm 1 mps 703 mmHg 20%
    01:00 +26°C° 0 mm 1 mps 703 mmHg 20%
    02:00 +25°C° 0 mm 1 mps 702 mmHg 21%
    03:00 +25°C° 0 mm 1 mps 703 mmHg 21%
    04:00 +25°C° 0 mm 1 mps 703 mmHg 21%
    05:00 +25°C° 0 mm 1 mps 703 mmHg 21%
    06:00 +27°C° 0 mm 1 mps 704 mmHg 20%
    07:00 +28°C° 0 mm 2 mps 705 mmHg 19%
    08:00 +29°C° 0 mm 3 mps 706 mmHg 18%
    15:00 +41°C° 0 mm 4 mps 704 mmHg 11%
    16:00 +41°C° 0 mm 4 mps 704 mmHg 11%
    17:00 +41°C° 0 mm 5 mps 704 mmHg 12%
    18:00 +37°C° 0 mm 4 mps 704 mmHg 14%
    19:00 +34°C° 0 mm 3 mps 704 mmHg 16%
    20:00 +30°C° 0 mm 2 mps 704 mmHg 19%
    21:00 +30°C° 0 mm 1 mps 704 mmHg 19%
    22:00 +30°C° 0 mm 1 mps 704 mmHg 19%
    23:00 +29°C° 0 mm 1 mps 704 mmHg 20%

    22 February, Saturday

    Time Temperature Precipitation Wind Pressure Humidity
    00:00 +29°C° 0 mm 1 mps 704 mmHg 21%
    01:00 +29°C° 0 mm 1 mps 704 mmHg 22%
    02:00 +28°C° 0 mm 1 mps 703 mmHg 23%
    03:00 +28°C° 0 mm 1 mps 703 mmHg 25%
    04:00 +27°C° 0 mm 1 mps 704 mmHg 26%
    05:00 +26°C° 0 mm 1 mps 704 mmHg 27%
    06:00 +27°C° 0 mm 2 mps 705 mmHg 26%
    07:00 +28°C° 0 mm 2 mps 706 mmHg 25%
    08:00 +29°C° 0 mm 2 mps 707 mmHg 23%
    09:00 +31°C° 0 mm 3 mps 707 mmHg 19%
    10:00 +35°C° 0 mm 3 mps 707 mmHg 14%
    11:00 +38°C° 0 mm 4 mps 708 mmHg 10%
    12:00 +40°C° 0 mm 4 mps 707 mmHg 10%
    13:00 +42°C° 0 mm 4 mps 706 mmHg 9%
    14:00 +43°C° 0 mm 4 mps 705 mmHg 9%
    15:00 +43°C° 0 mm 3 mps 704 mmHg 9%
    16:00 +42°C° 0 mm 3 mps 704 mmHg 10%
    17:00 +40°C° 0 mm 2 mps 704 mmHg 10%
    18:00 +37°C° 0 mm 2 mps 703 mmHg 14%
    19:00 +33°C° 0 mm 1 mps 703 mmHg 17%
    20:00 +30°C° 0 mm 1 mps 703 mmHg 20%
    21:00 +29°C° 0 mm 1 mps 703 mmHg 23%
    22:00 +27°C° 0 mm 1 mps 704 mmHg 26%
    23:00 +24°C° 0 mm 0 mps 704 mmHg 29%
    Show more